Weather in Trostyanka

Russia / Volgograd Oblast     50°48′59″N   43°27′56″E
temp.,
°C
wind,
m/s
gust,
m/s
humid.,
%
clouds,
%
prec.,
mm/h
press.,
hPa
HPBL,
m
18 may, tue
tue1800:00+17ese5135214 0.0 1011182
03:00+16e4115096 0.0 1010147
06:00+16e51355100 0.0 1009186
09:00+24ese714445 0.0 1008683
12:00+28ese812365 0.0 10081084
15:00+30ese815345 0.0 10072810
18:00+24ssw5105071 0.0 1007318
21:00+19sw356981 0.0 1009100
19 may, wed
wed1900:00+17nw118891 0.0 100911
03:00+15wsw229281 0.0 101033
06:00+16wnw2285100 0.0 1009113
09:00+21wnw21652 0.0 1009645
12:00+25se354935 0.0 10081458
15:00+26s5747100 0.0 10071700
18:00+22sw596386 0.0 1007386
21:00+17ssw61175100 0.0 1010496
20 may, thu
thu2000:00+14sw61087100 0.3 1011464
03:00+12s369255 0.9 1011188
06:00+13s488910 0.0 1011354
09:00+17s787270 0.0 10111101
12:00+18ssw696269 0.1 10121382
15:00+18ssw686314 0.3 10121284
18:00+17sw587317 0.9 1012979
21:00+13sw36910 0.9 1013113
21 may, fri
fri2100:00+12sw36945 0.0 1014108
03:00+11sw369491 0.0 1014117
06:00+13sw368675 0.0 1016180
09:00+19sw356363 0.0 1017725
12:00+22ssw454840 0.0 10171554
15:00+23s3443100 0.0 10161488
18:00+21e226298 0.0 101729
21:00+19ese3567100 0.0 101774
22 may, sat
sat2200:00+18e51263100 0.0 1016250
03:00+18ese8185793 0.0 1015458
06:00+17se7166741 0.0 1015415
09:00+24sse816515 0.0 10141050
12:00+27sse91339100 0.0 10131367
15:00+29sse61243100 0.0 10131662
18:00+26se3356100 0.0 101248
21:00+22ese4105980 0.0 1012166